Location: Carrières
(48.9495°N, 2.0407°E)
Time: 02:46:45
(UTC+00:00)

Transit 2A - Pass Details

Date: 22 April 2024
Orbit: 594 x 957 km, 66.7° (Epoch: 19 May)

Event Time Altitude Azimuth Distance (km) Brightness Sun altitude
Rises 05:20:16 0° 189° (S) 2,837 8.7 4.5°
Reaches altitude 10° 05:22:34 10° 180° (S) 1,960 8.0 4.8°
Maximum altitude 05:26:34 35° 114° (ESE) 1,024 7.5 5.5°
Drops below altitude 10° 05:30:51 10° 49° (NE) 2,110 9.6 6.2°
Sets 05:33:25 0° 41° (NE) 3,087 10.1 6.6°
